Content
SEND FEEDBACK

Daily
Averages
Monthly
Summary
Turkmenistan

ASHGABAT, TURKMENISTAN


Home > Asia > Turkmenistan
Elevation: 775 feet     Latitude: 37 58N     Longitude: 058 20E

WEATHER
 
SELECT A DAY
Number of Records: 177,491;   Date Range: 3/15/97 - 9/3/14
 
SHARE

PRINT THIS DATA

[ ← Previous Day ]
WEATHER ALMANAC - JULY 22, 2014
[ Next Day → ]
[ °C ]   °F
Weather ElementAverageHighLow
Temperature90.9 °F100.4 °F (5:00 pm)82.4 °F (5:00 am)
Dewpoint49.5 °F64 °F (11:00 pm)32 °F (8:00 am)
Humidity22.6 %40 % (10:00 pm)9 % (8:00 am)
Barometer29.62 in29.71 in (11:00 pm)29.50 in (12:30 am)
Wind Speed11.4 mph17.9 mph (10:00 am)
Wind Gust24.6 mph (4:00 pm)
Weather ElementAverage
Visibility6.2 mi
Wind DirectionW (270.3 °)

Weather ElementTotal
Precipitation---
Cooling Degree Days26.4 (Base 65)
Growing Degree Days41.4 (Base 50)
Averaged from 35 records on July 22, 2014
WEATHER CONDITIONS BREAKOUT
WIND DIRECTION BREAKOUT
WEATHER BY HOUR - JULY 22, 2014
[ °C ]   °F
Local TimeTemperatureDewpointHumidityBarometerVisibilityWind DirectionWind SpeedGust SpeedPrecipitationEventsConditions
12:30 AM91.4 °F44.6 °F20 %29.50 in6.2 miESE (110°)6.7 mphClear
1:00 AM89.6 °F44.6 °F21 %29.50 in6.2 miEast (100°)6.7 mphClear
1:30 AM89.6 °F46.4 °F22 %29.50 in6.2 miNE (50°)6.7 mphClear
2:00 AM89.0 °F50.0 °F17 %29.50 in6.0 miNorth (350°)2.2 mph
2:00 AM89.6 °F46.4 °F22 %29.50 in6.2 miNE (40°)4.5 mphClear
2:30 AM87.8 °F46.4 °F24 %29.50 in6.2 miNNE (20°)6.7 mphClear
3:00 AM87.8 °F46.4 °F24 %29.50 in6.2 miNorth (350°)4.5 mphClear
3:30 AM84.2 °F48.2 °F29 %29.53 in6.2 miWest (280°)8.9 mphClear
4:00 AM84.2 °F50.0 °F30 %29.53 in6.2 miWNW (300°)11.2 mphClear
5:00 AM82.4 °F42.8 °F25 %29.59 in6.2 miWNW (300°)13.4 mphScattered Clouds
5:00 AM83.0 °F47.0 °F18 %29.58 in6.0 miWNW (300°)13.4 mphPartly Cloudy
6:00 AM82.4 °F39.2 °F21 %29.62 in6.2 miWNW (290°)15.7 mphMostly Cloudy
7:00 AM82.4 °F33.8 °F17 %29.65 in6.2 miWNW (290°)15.7 mphMostly Cloudy
8:00 AM83.0 °F34.0 °F9 %29.68 in6.0 miWNW (290°)13.4 mphPartly Cloudy
8:00 AM84.2 °F32.0 °F15 %29.68 in6.2 miWNW (290°)15.7 mphScattered Clouds
9:00 AM86.0 °F42.8 °F22 %29.68 in6.2 miNW (310°)15.7 mphScattered Clouds
10:00 AM89.6 °F33.8 °F14 %29.68 in6.2 miNW (310°)17.9 mphPartly Cloudy
11:00 AM93.2 °F48.2 °F21 %29.68 in6.2 miNW (310°)15.7 mphClear
11:00 AM91.0 °F44.0 °F11 %29.68 in6.0 miNW (310°)15.7 mph
12:00 PM95.0 °F51.8 °F23 %29.68 in6.2 miNW (320°)15.7 mphClear
1:00 PM95.0 °F55.4 °F26 %29.68 in6.2 miNW (320°)15.7 mphClear
2:00 PM97.0 °F59.0 °F19 %29.66 in6.0 miNW (320°)11.2 mph
2:00 PM96.8 °F55.4 °F25 %29.68 in6.2 miNW (320°)11.2 mphClear
3:00 PM98.6 °F55.4 °F24 %29.65 in6.2 miWNW (300°)11.2 mphClear
4:00 PM98.6 °F55.4 °F24 %29.65 in6.2 miWNW (290°)13.4 mph24.6 mphClear
5:00 PM100.4 °F53.6 °F21 %29.65 in6.2 miNNW (330°)11.2 mphClear
5:00 PM99.0 °F57.0 °F16 %29.63 in6.0 miNW (310°)8.9 mph
6:00 PM98.6 °F53.6 °F22 %29.65 in6.2 miNW (320°)8.9 mphPartly Cloudy
7:00 PM98.6 °F55.4 °F24 %29.65 in6.2 miWNW (300°)11.2 mphPartly Cloudy
8:00 PM96.0 °F59.0 °F20 %29.63 in6.0 miWNW (290°)8.9 mphScattered Clouds
8:00 PM95.0 °F57.2 °F28 %29.65 in6.2 miWNW (290°)11.2 mphPartly Cloudy
9:00 PM93.2 °F57.2 °F30 %29.68 in6.2 miWNW (300°)8.9 mphScattered Clouds
10:00 PM89.6 °F62.6 °F40 %29.68 in6.2 miWNW (290°)13.4 mphScattered Clouds
11:00 PM90.0 °F64.0 °F32 %29.68 in6.0 miWest (280°)13.4 mphClear
11:00 PM91.4 °F60.8 °F36 %29.71 in6.2 miWest (280°)13.4 mphPartly Cloudy
Hourly data recorded from UTAA, located miles away from Ashgabat, Turkmenistan







STORIES FROM OUR PARTNERS